Baltimore Martin, MD

1:35 AM EDT on May 23, 2017 (GMT -0400)
Martin State

Weather History for KMTN - December, 2012

Change the Weather History Date:

Monday, December 3, 2012

  Actual Average Record
Temperature  
Mean Temperature 52 °F -  
Max Temperature 62 °F 47 °F 62 °F (2012)
Min Temperature 41 °F 33 °F 15 °F (2000)
Degree Days  
Heating Degree Days 14    
Growing Degree Days 2 (Base 50)    
Moisture  
Dew Point 48 °F    
Average Humidity 95    
Maximum Humidity 100    
Minimum Humidity 72    
Precipitation  
Precipitation 0.00 in - - ()
Sea Level Pressure  
Sea Level Pressure 30.21 in    
Wind  
Wind Speed 0 mph (SE)    
Max Wind Speed 6 mph    
Max Gust Speed -    
Visibility 4 miles    
Events Fog    
Averages and records for this station are not official NWS values.
T = Trace of Precipitation, MM = Missing Value Source: NWS Daily Summary

Daily Weather History Graph

Daily Weather History Graph

Search for Another Location

Airport or City:

Trip Planner

Search our weather history database for the weather conditions in past years. The results will help you decide how hot, cold, wet, or windy it might be!

Date:

Astronomy

Dec. 03, 2012 Rise Set
Actual Time 7:08 AM EST 4:42 PM EST
Civil Twilight 6:39 AM EST 5:12 PM EST
Nautical Twilight 6:05 AM EST 5:45 PM EST
Astronomical Twilight 5:33 AM EST 6:17 PM EST
Moon 9:26 PM EST (12/3) 10:31 AM EST (12/3)
Length of Visible Light 10h 33m
Length of Day
9h 33m
Waning Gibbous, 78% of the Moon is Illuminated
Dec 3
Waning Gibbous
Dec 6
Last Quarter
Dec 13
New
Dec 20
First Quarter
Dec 28
Full

Hourly Weather History & Observations

Time (EST) Temp. Windchill Dew Point Humidity Pressure Visibility Wind Dir Wind Speed Gust Speed Precip Events Conditions
12:12 AM 46.4 °F - 46.4 °F 100% 30.16 in 0.8 mi Calm Calm - N/A   Mostly Cloudy
12:33 AM 46.4 °F - 46.4 °F 100% 30.16 in 0.2 mi Calm Calm - N/A Fog Fog
12:54 AM 46.4 °F - 46.4 °F 100% 30.16 in 1.8 mi Calm Calm - N/A   Overcast
1:15 AM 48.2 °F - 48.2 °F 100% 30.16 in 2.0 mi Calm Calm - N/A   Overcast
1:36 AM 46.4 °F - 46.4 °F 100% 30.17 in 1.8 mi Calm Calm - N/A   Mostly Cloudy
1:57 AM 46.4 °F - 46.4 °F 100% 30.18 in 1.0 mi Calm Calm - N/A   Overcast
2:18 AM 46.4 °F - 46.4 °F 100% 30.18 in 1.5 mi Calm Calm - N/A   Overcast
2:42 AM 48.2 °F - 48.2 °F 100% 30.18 in 2.5 mi Calm Calm - N/A   Overcast
3:03 AM 46.4 °F 45.2 °F 46.4 °F 100% 30.18 in 2.0 mi SE 3.5 mph - N/A   Overcast
3:45 AM 44.6 °F - 44.6 °F 100% 30.18 in 0.2 mi Calm Calm - N/A Fog Fog
4:06 AM 44.6 °F - 44.6 °F 100% 30.19 in 0.2 mi Calm Calm - N/A Fog Fog
4:27 AM 42.8 °F 41.1 °F 42.8 °F 100% 30.19 in 0.2 mi WNW 3.5 mph - N/A Fog Fog
4:48 AM 42.8 °F - 42.8 °F 100% 30.18 in 0.2 mi Calm Calm - N/A Fog Fog
5:09 AM 44.6 °F - 44.6 °F 100% 30.19 in 1.0 mi Calm Calm - N/A   Overcast
5:27 AM 42.8 °F - 42.8 °F 100% 30.19 in 1.2 mi Calm Calm - N/A   Mostly Cloudy
5:45 AM 44.6 °F - 44.6 °F 100% 30.20 in 4.0 mi Calm Calm - N/A Fog Fog
6:45 AM 41.0 °F - 41.0 °F 100% 30.23 in 4.0 mi Calm Calm - N/A Fog Fog
7:54 AM 42.8 °F - 42.8 °F 100% 30.25 in 3.0 mi Calm Calm - N/A Fog Patches of Fog
9:45 AM 53.6 °F - 53.6 °F 100% 30.27 in 4.0 mi Calm Calm - N/A   Clear
10:54 AM 60.8 °F - 53.6 °F 77% 30.26 in 6.0 mi Calm Calm - N/A   Clear
11:45 AM 62.6 °F - 53.6 °F 72% 30.24 in 7.0 mi Calm Calm - N/A   Partly Cloudy
12:45 PM 62.6 °F - 53.6 °F 72% 30.22 in 7.0 mi ESE 5.8 mph - N/A   Scattered Clouds
2:55 PM 62.6 °F - 53.6 °F 72% 30.20 in 7.0 mi ESE 5.8 mph - N/A   Scattered Clouds
3:50 PM 59.0 °F - 53.6 °F 82% 30.21 in 7.0 mi ESE 3.5 mph - N/A   Scattered Clouds
4:45 PM 57.2 °F - 51.8 °F 82% 30.23 in 10.0 mi Calm Calm - N/A   Scattered Clouds
5:50 PM 53.6 °F - 50.0 °F 88% 30.24 in 7.0 mi Calm Calm - N/A   Mostly Cloudy
6:55 PM 50.0 °F - 50.0 °F 100% 30.26 in 7.0 mi Calm Calm - N/A   Mostly Cloudy
7:50 PM 50.0 °F - 50.0 °F 100% 30.26 in 7.0 mi Calm Calm - N/A   Mostly Cloudy
8:50 PM 50.0 °F - 50.0 °F 100% 30.26 in 7.0 mi Calm Calm - N/A   Mostly Cloudy
9:45 PM 50.0 °F - 48.2 °F 94% 30.26 in 7.0 mi Calm Calm - N/A   Mostly Cloudy
10:09 PM 48.2 °F - 48.2 °F 100% 30.26 in 7.0 mi Calm Calm - N/A   Scattered Clouds
10:51 PM 50.0 °F - 48.2 °F 94% 30.25 in 5.0 mi Calm Calm - N/A   Scattered Clouds
11:12 PM 48.2 °F - 48.2 °F 100% 30.25 in 5.0 mi Calm Calm - N/A   Clear
11:36 PM 46.4 °F - 46.4 °F 100% 30.25 in 3.0 mi Calm Calm - N/A   Clear
11:57 PM 46.4 °F - 46.4 °F 100% 30.25 in 5.0 mi Calm Calm - N/A   Clear